EW9304 Weather Reports


time (UTC)temp
C
wind
direction
speed
KPH
gust
KPH
rain 1hr
cm
rain 24hr
cm
rain mn
cm
humidity
%
barometer
mb
20260509173018 18 129 0.0 0.0 0.00 0.00 0.00 61 997.4
20260509171514 17 286 0.0 0.0 0.00 0.00 0.00 62 997.8
20260509170012 16 29 0.0 0.0 0.00 0.00 0.00 65 998.1
20260509164510 16 140 0.0 0.0 0.00 0.00 0.00 67 997.9
20260509163010 16 353 0.0 0.0 0.00 0.00 0.00 64 997.7
20260509161510 16 354 0.0 0.0 0.00 0.00 0.00 65 997.7
20260509160009 16 304 0.0 0.0 0.00 0.00 0.00 68 998.1
20260509154510 16 163 0.0 0.0 0.00 0.00 0.00 65 997.9
20260509153007 16 211 0.0 0.0 0.00 0.00 0.00 65 998.1
20260509151505 16 150 0.0 0.0 0.00 0.00 0.00 67 998.0
20260509150002 15 122 0.0 0.0 0.00 0.00 0.00 70 998.1
20260509144600 15 128 0.0 0.0 0.00 0.00 0.00 71 998.4
20260509143057 14 131 0.0 0.0 0.00 0.00 0.00 76 998.3
20260509141601 13 153 0.0 0.0 0.00 0.00 0.00 78 998.2
20260509140059 13 117 0.0 0.0 0.00 0.00 0.00 78 997.9
20260509134545 13 117 0.0 0.0 0.00 0.00 0.00 79 997.9
20260509133044 12 120 0.0 0.0 0.00 0.00 0.00 79 997.9
20260509131544 12 151 0.0 0.0 0.00 0.00 0.00 83 998.0
20260509130047 12 120 0.0 0.0 0.00 0.00 0.00 83 998.1
20260509124542 12 122 0.0 0.0 0.00 0.00 0.00 84 998.0
20260509123051 12 122 0.0 0.0 0.00 0.00 0.00 84 998.0
20260509121538 12 120 0.0 0.0 0.00 0.00 0.00 85 998.2
20260509120037 11 166 0.0 0.0 0.00 0.00 0.00 85 998.1
20260509114539 11 167 0.0 0.0 0.00 0.00 0.00 86 998.2
20260509113040 11 167 0.0 0.0 0.00 0.00 0.00 85 998.0
20260509111633 11 323 0.0 0.0 0.00 0.00 0.00 84 997.7
20260509110032 11 323 0.0 0.0 0.00 0.00 0.00 81 997.7
20260509104531 11 39 0.0 0.0 0.00 0.00 0.00 79 997.9
20260509103030 11 6 0.0 0.0 0.00 0.00 0.00 78 997.6
20260509101533 11 6 0.0 0.0 0.00 0.00 0.00 80 997.4
20260509100035 11 6 0.0 0.0 0.00 0.00 0.00 80 997.2
20260509094530 11 6 0.0 0.0 0.00 0.00 0.00 79 997.2
20260509093028 11 6 0.0 0.0 0.00 0.00 0.00 79 997.2
20260509091533 11 6 0.0 0.0 0.00 0.00 0.00 78 997.1
20260509090027 11 6 0.0 0.0 0.00 0.00 0.00 77 997.1
20260509084525 11 6 0.0 0.0 0.00 0.00 0.00 76 997.2
20260509083038 11 6 0.0 0.0 0.00 0.00 0.00 76 997.3
20260509081525 11 6 0.0 0.0 0.00 0.00 0.00 74 997.3
20260509080025 11 6 0.0 0.0 0.00 0.00 0.00 76 997.4
20260509074522 11 6 0.0 0.0 0.00 0.00 0.00 77 997.3
20260509073019 11 338 0.0 0.0 0.00 0.00 0.00 75 997.3
20260509071519 11 338 0.0 0.0 0.00 0.00 0.00 78 997.3
20260509070019 10 338 0.0 0.0 0.00 0.00 0.00 77 997.4
20260509064527 10 338 0.0 0.0 0.00 0.00 0.00 76 997.4
20260509063013 11 338 0.0 0.0 0.00 0.00 0.00 74 997.5
20260509061532 11 338 0.0 0.0 0.00 0.00 0.00 69 997.7
20260509060011 12 338 0.0 0.0 0.00 0.00 0.00 66 997.8
20260509054508 11 338 0.0 0.0 0.00 0.00 0.00 69 997.8
20260509053009 10 338 0.0 0.0 0.00 0.00 0.00 76 997.9
20260509051502 10 338 0.0 0.0 0.00 0.00 0.00 80 997.8
20260509050005 10 338 0.0 0.0 0.00 0.00 0.00 80 997.8
20260509044602 9 338 0.0 0.0 0.00 0.00 0.00 79 997.8
20260509043100 10 338 0.0 0.0 0.00 0.00 0.00 77 998.0
20260509041554 10 338 0.0 0.0 0.00 0.00 0.00 76 998.1
20260509040052 10 338 0.0 0.0 0.00 0.00 0.00 73 998.1
20260509034600 10 338 0.0 0.0 0.00 0.00 0.00 73 998.2
20260509033051 10 338 0.0 0.0 0.00 0.00 0.00 74 998.2
20260509031551 11 338 0.0 0.0 0.00 0.00 0.00 74 998.2
20260509030051 11 338 0.0 0.0 0.00 0.00 0.00 72 998.2
20260509024552 11 338 0.0 0.0 0.00 0.00 0.00 71 998.3
20260509023049 12 338 0.0 0.0 0.00 0.00 0.00 68 998.5
20260509021549 12 338 0.0 0.0 0.00 0.00 0.00 67 998.6
20260509020049 12 338 0.0 0.0 0.00 0.00 0.00 67 998.7
20260509014550 13 338 0.0 0.0 0.00 0.00 0.00 64 998.4
20260509013048 13 338 0.0 0.0 0.00 0.00 0.00 62 998.4
20260509011548 14 338 0.0 0.0 0.00 0.00 0.00 59 998.3
20260509010047 15 338 0.0 0.0 0.00 0.00 0.00 58 998.3
20260509004548 15 338 0.0 0.0 0.00 0.00 0.00 55 998.4
20260509003046 16 338 0.0 0.0 0.00 0.00 0.00 55 998.3
20260509001545 16 338 0.0 0.0 0.00 0.00 0.00 52 998.1
20260509000045 17 338 0.0 0.0 0.00 0.00 0.00 48 998.0
20260508234547 17 338 0.0 0.0 0.00 0.00 0.00 47 997.9
20260508233045 18 338 0.0 0.0 0.00 0.00 0.00 47 997.8
20260508231604 18 338 0.0 0.0 0.00 0.00 0.00 44 997.8
20260508230056 19 338 0.0 0.0 0.00 0.00 0.00 42 997.7
20260508224542 19 338 0.0 0.0 0.00 0.00 0.00 40 997.7
20260508223045 19 338 0.0 0.0 0.00 0.00 0.00 38 997.8
20260508221540 20 320 0.0 0.0 0.00 0.00 0.00 38 997.8
20260508220043 20 13 0.0 0.0 0.00 0.00 0.00 36 997.7
20260508214554 20 290 0.0 0.0 0.00 0.00 0.00 36 997.8
20260508213046 19 288 0.0 0.0 0.00 0.00 0.00 36 997.9
20260508211541 19 293 0.0 0.0 0.00 0.00 0.00 35 998.0
20260508210036 20 283 0.0 0.0 0.00 0.00 0.00 33 998.0
20260508204535 20 286 0.0 6.4 0.00 0.00 0.00 33 998.0
20260508203034 20 207 0.0 6.4 0.00 0.00 0.00 32 998.0
20260508201535 20 261 0.0 6.4 0.00 0.00 0.00 32 998.2
20260508200036 21 290 0.0 9.7 0.00 0.00 0.00 31 998.2
20260508194531 22 268 0.0 1.6 0.00 0.00 0.00 28 998.2
20260508193036 22 283 0.0 12.9 0.00 0.00 0.00 30 998.4
20260508191536 21 269 0.0 4.8 0.00 0.00 0.00 31 998.6
20260508190031 20 295 0.0 12.9 0.00 0.00 0.00 30 998.8
20260508184526 21 258 0.0 8.0 0.00 0.00 0.00 30 999.0
20260508183032 21 281 3.2 19.3 0.00 0.00 0.00 31 999.2
20260508181524 21 8 0.0 9.7 0.00 0.00 0.00 33 999.3
20260508180024 21 120 0.0 12.9 0.00 0.00 0.00 32 999.3
20260508174523 21 293 0.0 0.0 0.00 0.00 0.00 31 999.8